Wind_Speed
81 83 85 87 88 90 92 93 94 94 95 96 98 100 102 103 105 107 110 111 111 111 110 110 110 110 110 111 112 112 112 113 114 114 116 117 118 120 121 122 122 122
82 84 86 87 89 91 92 94 95 96 98 99 101 103 105 107 109 111 112 112 111 110 110 111 111 111 111 112 112 113 113 114 115 116 117 119 120 121 122 122 122 121
82 84 85 87 88 90 91 93 95 97 99 101 104 106 108 110 111 112 112 111 110 109 110 112 112 112 112 112 113 113 114 115 116 117 119 120 121 121 121 121 121 119
83 84 86 87 89 90 92 94 96 98 101 103 105 108 109 110 111 110 110 110 109 110 111 111 111 111 111 112 112 113 114 115 117 118 120 120 121 121 121 120 119 118
85 86 88 90 91 92 94 96 98 101 103 105 107 108 109 109 109 109 109 109 109 110 110 110 110 111 112 112 113 114 115 116 118 119 120 121 121 121 120 119 118 116
87 89 90 91 92 94 96 98 100 102 104 106 107 107 108 108 108 107 107 108 108 109 109 110 111 112 112 113 114 115 116 118 119 121 121 121 121 120 119 118 116 114
89 90 91 92 94 96 98 100 102 103 104 105 106 106 107 107 106 106 107 108 108 109 109 110 111 112 113 114 115 116 118 119 121 122 122 121 121 119 118 116 113 111
90 92 93 94 96 99 100 102 103 104 105 105 106 106 106 106 106 106 107 107 108 109 109 110 111 112 113 115 116 118 119 121 122 122 122 121 120 118 116 113 111 109
92 93 94 96 99 100 102 103 104 105 106 106 106 106 106 106 106 107 107 107 108 109 110 111 112 113 114 116 117 119 121 122 122 122 121 120 118 116 113 111 109 107
94 95 97 99 100 102 103 104 105 105 106 106 106 106 106 106 106 107 107 108 109 109 111 112 113 114 116 117 120 122 123 123 123 122 120 118 116 113 111 110 108 106
96 98 99 101 102 103 104 104 105 105 105 105 105 105 106 106 106 107 108 108 109 110 111 113 114 116 118 120 122 123 124 123 122 121 119 116 113 111 110 108 107 105
99 100 101 102 103 104 104 104 104 105 105 105 105 105 106 106 107 107 108 109 110 111 113 114 116 118 121 123 124 125 124 123 121 119 117 114 111 109 108 107 105 103
101 102 102 103 104 104 104 104 104 104 105 105 106 106 107 107 107 108 109 110 112 113 115 117 119 122 124 125 126 125 124 122 120 117 115 112 110 108 106 104 102 101
102 102 103 104 105 105 104 104 105 105 106 106 107 107 108 108 108 109 111 112 114 116 118 121 123 125 126 127 126 125 123 120 118 116 113 111 108 106 104 102 100 99
103 103 104 105 105 105 105 105 106 106 107 108 108 109 109 109 110 111 113 115 117 120 122 125 126 127 128 127 126 123 121 119 116 114 112 110 107 105 103 101 99 97
104 104 105 105 105 106 106 106 107 108 109 109 110 110 110 111 112 114 116 119 121 124 126 128 129 129 128 127 124 122 119 117 115 113 111 108 106 104 101 99 98 96
105 105 106 106 106 107 107 108 109 110 111 111 111 112 112 114 116 118 120 123 126 129 130 132 132 131 128 126 123 120 118 116 114 113 110 108 105 102 100 98 96 94
106 106 107 107 107 108 109 110 111 112 113 113 113 114 115 117 120 122 125 128 130 133 134 135 134 131 128 125 122 119 117 115 114 112 109 107 104 101 98 96 94 92
107 107 108 109 109 110 112 113 114 115 115 115 116 117 120 122 125 127 130 133 135 137 137 137 135 132 128 125 122 119 117 115 114 111 108 105 103 100 97 95 92 90
108 109 110 111 112 113 115 116 117 117 117 118 120 123 125 128 130 133 136 138 139 140 140 139 136 132 128 125 122 120 118 116 113 110 107 104 101 99 96 93 90 87
110 111 113 114 115 116 117 118 119 120 121 123 126 128 131 133 136 139 141 143 143 143 143 140 137 132 128 125 123 120 118 115 113 109 106 103 100 97 94 91 88 85
113 114 116 117 118 119 120 122 123 124 126 129 131 134 136 139 142 144 146 147 148 147 145 141 136 131 128 125 123 121 118 115 112 108 105 101 98 95 92 89 86 84
116 117 119 120 121 122 124 125 127 129 131 134 136 139 142 144 147 149 151 152 151 149 145 141 136 131 127 125 123 121 118 115 111 107 103 99 96 93 91 88 85 83
119 121 121 122 123 125 127 129 131 134 136 138 141 144 147 149 152 154 155 155 153 150 144 139 135 131 127 125 123 120 117 113 109 104 101 97 94 92 90 87 85 82
122 123 124 125 127 129 131 133 136 138 140 143 146 148 151 153 156 157 158 156 153 148 143 138 134 131 128 125 122 119 115 111 106 102 99 96 94 92 90 87 84 82
124 125 127 129 131 133 136 138 140 142 145 147 150 152 154 156 158 160 159 156 152 146 141 136 133 131 128 124 121 117 113 108 104 101 98 95 93 92 89 86 84 81
Wind_Direction
295 295 294 294 294 294 294 294 294 293 293 293 294 294 295 295 297 298 299 300 299 298 296 295 295 294 294 295 295 296 296 297 298 299 299 299 299 299 298 298 297 297
295 294 294 294 294 294 294 294 294 294 294 294 294 294 295 296 297 298 299 299 297 296 295 295 295 295 295 295 296 297 297 298 299 299 300 300 299 299 299 298 298 298
294 294 295 295 295 295 295 295 295 295 295 295 295 295 296 297 297 298 298 297 296 295 295 295 295 295 295 296 297 297 298 299 300 301 301 301 301 300 300 299 299 298
294 294 295 296 296 297 297 297 296 296 296 295 296 296 296 297 297 297 296 295 295 294 294 295 295 296 296 297 298 299 300 301 302 302 302 302 301 301 300 299 299 298
294 295 295 296 296 296 296 296 296 295 295 295 295 295 296 296 296 295 295 295 294 295 295 296 296 297 298 299 299 301 302 303 303 303 303 303 302 301 301 300 299 298
294 295 295 295 295 295 295 295 295 295 295 295 295 295 295 295 295 295 295 295 295 296 296 297 298 298 299 300 302 303 304 305 305 305 304 303 303 302 301 300 299 298
294 294 294 294 294 295 295 294 294 294 295 295 295 294 294 294 295 295 295 296 296 297 298 299 300 301 302 303 304 305 306 306 306 305 304 303 303 302 301 300 299 298
294 294 294 294 294 294 294 294 294 294 294 294 294 294 294 294 295 296 296 297 298 299 300 301 301 302 303 304 305 306 306 306 306 305 304 303 303 302 301 300 299 298
293 293 293 293 293 293 293 293 293 293 293 293 293 294 294 295 296 296 297 298 299 300 301 302 302 303 304 305 306 307 307 307 307 306 305 304 304 303 302 301 300 299
292 292 292 292 292 292 293 293 293 293 293 293 293 294 295 296 297 298 299 300 301 301 302 303 304 305 306 307 308 309 309 308 308 307 306 305 305 304 303 301 301 300
291 291 291 291 292 292 292 292 292 292 293 294 295 296 297 298 299 299 301 301 302 303 304 305 306 307 309 310 310 310 310 309 308 307 306 306 305 304 303 302 301 300
290 290 291 291 292 292 292 292 293 293 294 295 297 298 299 299 300 301 302 303 304 305 307 308 309 310 311 311 311 311 310 309 308 307 306 305 305 303 302 301 300 300
290 290 291 291 292 292 292 293 294 295 296 298 299 300 300 301 302 303 304 305 306 308 309 310 311 312 312 312 311 311 310 309 308 307 306 305 304 303 302 301 300 299
291 291 292 292 293 293 294 295 296 297 299 300 301 301 302 303 304 305 306 308 309 311 312 313 313 313 313 312 311 311 310 309 308 307 306 305 304 303 302 301 300 299
292 292 293 293 294 295 296 297 298 300 301 302 302 303 304 305 306 308 309 311 312 313 314 314 314 313 313 312 311 311 310 309 308 307 306 305 304 303 302 301 300 299
293 293 294 295 296 297 298 299 301 302 303 303 304 305 306 307 309 310 312 313 314 315 315 315 314 313 313 312 311 310 310 309 308 307 307 306 305 303 302 301 300 299
294 295 295 296 298 299 300 302 303 304 304 305 306 307 309 310 311 313 314 315 316 316 316 315 314 313 313 312 311 310 310 309 308 308 307 306 305 303 302 301 300 299
295 296 297 299 300 301 303 304 305 306 306 307 308 310 311 312 314 315 316 316 317 316 316 315 314 313 313 312 311 310 310 309 309 308 307 306 304 303 302 301 300 299
297 298 300 301 303 304 305 306 307 307 308 309 311 312 313 315 316 317 317 317 317 317 316 316 314 313 313 312 311 311 310 310 309 308 307 306 304 303 302 301 300 299
300 301 303 304 305 306 307 307 308 309 310 312 313 315 316 316 317 318 318 317 317 317 316 316 314 313 313 312 312 311 310 310 309 308 307 306 304 303 302 301 300 299
302 304 305 306 307 307 308 309 310 311 313 314 315 316 317 317 318 318 318 318 317 317 316 315 314 313 313 312 312 311 310 309 309 308 307 306 304 303 302 301 300 299
305 305 306 307 307 308 309 310 312 313 315 316 316 317 317 318 318 318 318 317 317 317 316 315 314 313 313 312 312 311 310 309 308 308 307 305 304 303 302 301 301 300
306 306 307 307 308 309 311 312 313 314 315 316 316 317 317 318 318 318 317 317 317 316 315 314 313 313 312 312 312 311 310 309 308 307 306 305 304 304 303 302 301 301
306 306 307 308 309 311 312 313 314 315 315 316 316 317 317 317 317 317 317 317 316 316 315 314 313 312 312 312 311 310 309 308 307 307 306 305 305 304 303 303 302 301
306 307 308 309 311 312 313 313 314 315 315 316 316 316 316 316 316 316 316 316 315 315 314 313 312 312 312 312 311 310 309 308 307 307 306 306 305 304 304 303 303 302
307 308 309 310 311 312 313 313 314 314 314 315 315 315 315 315 315 315 315 315 314 314 313 312 312 312 312 311 310 309 308 307 307 307 306 306 305 304 304 303 303 302
Height
10648 10645 10641 10638 10635 10631 10628 10624 10620 10616 10611 10607 10602 10598 10593 10589 10585 10581 10576 10572 10566 10561 10555 10549 10543 10538 10532 10526 10520 10513 10506 10499 10492 10485 10478 10471 10464 10457 10449 10442 10436 10430
10638 10635 10632 10629 10625 10622 10618 10614 10610 10606 10601 10596 10591 10587 10582 10578 10574 10569 10565 10560 10554 10547 10541 10535 10530 10524 10518 10511 10505 10498 10490 10483 10477 10469 10461 10454 10446 10440 10433 10425 10418 10412
10629 10626 10622 10619 10615 10611 10608 10604 10599 10595 10590 10585 10580 10575 10571 10567 10562 10558 10553 10547 10541 10534 10528 10522 10516 10510 10504 10497 10490 10483 10475 10467 10460 10452 10444 10436 10429 10421 10415 10408 10401 10394
10619 10616 10612 10609 10605 10601 10597 10593 10588 10584 10579 10574 10569 10564 10560 10555 10551 10546 10540 10534 10527 10521 10515 10509 10502 10495 10489 10482 10475 10468 10460 10451 10443 10435 10427 10419 10412 10405 10397 10390 10383 10377
10610 10606 10602 10598 10595 10591 10587 10582 10577 10573 10568 10563 10558 10553 10549 10544 10540 10534 10527 10520 10514 10507 10501 10494 10487 10480 10474 10466 10459 10452 10444 10436 10427 10418 10410 10402 10395 10388 10380 10372 10365 10358
10599 10595 10591 10588 10584 10580 10576 10571 10566 10561 10556 10552 10547 10542 10537 10533 10527 10521 10514 10507 10500 10493 10486 10479 10472 10465 10458 10451 10443 10436 10427 10419 10410 10401 10393 10385 10377 10370 10362 10355 10347 10340
10589 10584 10581 10577 10574 10569 10565 10560 10555 10550 10545 10540 10535 10530 10526 10520 10514 10507 10500 10493 10486 10479 10472 10465 10457 10450 10442 10435 10427 10420 10411 10402 10394 10385 10377 10369 10360 10353 10345 10338 10331 10324
10578 10574 10571 10567 10563 10558 10554 10550 10545 10539 10534 10529 10524 10519 10513 10507 10501 10494 10487 10480 10473 10466 10458 10450 10443 10435 10428 10421 10412 10404 10396 10386 10378 10369 10360 10352 10344 10336 10328 10321 10314 10307
10568 10564 10561 10557 10552 10548 10543 10539 10533 10528 10523 10518 10512 10506 10500 10494 10487 10480 10474 10467 10459 10452 10444 10436 10429 10421 10413 10405 10397 10388 10380 10370 10361 10353 10344 10336 10327 10319 10311 10303 10297 10290
10558 10554 10550 10545 10541 10537 10532 10527 10522 10517 10511 10505 10499 10493 10487 10480 10474 10467 10460 10453 10445 10437 10429 10422 10414 10406 10398 10390 10381 10373 10364 10354 10345 10336 10328 10320 10311 10303 10295 10287 10281 10275
10547 10543 10539 10534 10530 10525 10520 10515 10511 10505 10498 10492 10485 10479 10473 10467 10460 10452 10445 10438 10430 10422 10414 10406 10399 10391 10383 10374 10366 10357 10348 10339 10330 10320 10312 10304 10296 10288 10280 10272 10266 10260
10535 10531 10527 10523 10517 10512 10508 10503 10497 10491 10484 10477 10471 10465 10459 10452 10445 10438 10430 10422 10414 10406 10398 10390 10382 10375 10367 10358 10350 10341 10333 10324 10314 10305 10296 10288 10281 10273 10265 10258 10252 10246
10523 10520 10515 10510 10504 10500 10495 10490 10483 10476 10469 10462 10456 10450 10443 10437 10430 10423 10415 10406 10398 10390 10383 10375 10366 10359 10350 10342 10333 10325 10316 10308 10298 10289 10281 10273 10266 10258 10251 10244 10238 10231
10511 10507 10502 10496 10491 10486 10481 10475 10467 10460 10454 10447 10441 10435 10428 10421 10414 10406 10398 10390 10382 10374 10366 10359 10351 10343 10335 10326 10317 10309 10300 10291 10282 10273 10266 10258 10250 10243 10236 10229 10223 10217
10497 10493 10487 10482 10478 10472 10466 10459 10452 10445 10439 10432 10426 10419 10412 10405 10398 10390 10382 10374 10366 10358 10350 10342 10335 10327 10318 10310 10301 10293 10284 10275 10266 10257 10250 10242 10235 10228 10221 10214 10208 10202
10483 10478 10473 10468 10463 10457 10450 10443 10436 10430 10423 10417 10410 10403 10396 10389 10381 10373 10366 10358 10350 10342 10334 10326 10318 10310 10302 10293 10285 10277 10268 10259 10250 10241 10234 10227 10220 10213 10207 10200 10193 10187
10469 10463 10459 10454 10448 10441 10434 10427 10420 10414 10407 10401 10394 10386 10379 10372 10364 10357 10350 10342 10334 10325 10317 10309 10301 10293 10285 10276 10268 10260 10252 10243 10234 10226 10219 10212 10205 10199 10192 10186 10179 10173
10455 10449 10443 10438 10432 10425 10418 10412 10405 10398 10391 10385 10378 10370 10362 10355 10348 10341 10333 10325 10317 10309 10301 10292 10283 10275 10267 10258 10250 10243 10235 10227 10218 10211 10204 10197 10190 10184 10177 10172 10166 10159
10440 10434 10427 10421 10416 10409 10403 10396 10389 10382 10375 10368 10361 10354 10346 10339 10332 10325 10317 10309 10301 10292 10284 10275 10265 10257 10250 10241 10233 10226 10219 10212 10204 10196 10190 10182 10175 10168 10162 10157 10151 10146
10426 10419 10412 10405 10400 10393 10387 10380 10372 10365 10358 10351 10345 10337 10330 10323 10315 10308 10300 10292 10284 10275 10267 10257 10247 10240 10233 10224 10217 10210 10203 10196 10189 10182 10175 10168 10160 10154 10148 10142 10137 10132
10410 10403 10396 10390 10384 10378 10371 10363 10355 10348 10341 10334 10328 10320 10314 10307 10299 10291 10283 10274 10267 10259 10250 10240 10230 10223 10217 10209 10201 10194 10187 10180 10173 10166 10160 10153 10146 10140 10134 10128 10123 10119
10395 10388 10381 10375 10369 10362 10355 10346 10339 10332 10325 10318 10311 10304 10297 10290 10282 10274 10266 10258 10250 10242 10233 10224 10214 10207 10201 10193 10185 10178 10171 10164 10157 10151 10145 10139 10132 10126 10120 10114 10109 10105
10380 10373 10367 10360 10354 10347 10339 10330 10323 10316 10309 10302 10295 10288 10281 10274 10266 10258 10250 10242 10234 10226 10218 10208 10199 10191 10186 10178 10169 10162 10155 10148 10142 10137 10131 10125 10119 10112 10106 10101 10096 10092
10365 10359 10353 10346 10339 10332 10323 10315 10308 10301 10294 10287 10280 10273 10266 10258 10251 10242 10234 10226 10218 10210 10202 10192 10183 10175 10170 10163 10154 10147 10140 10133 10127 10122 10117 10111 10105 10098 10092 10087 10083 10079
10351 10344 10338 10331 10323 10316 10308 10301 10294 10287 10280 10273 10266 10258 10252 10244 10236 10227 10219 10211 10203 10194 10185 10176 10168 10160 10154 10147 10139 10132 10125 10119 10113 10108 10103 10098 10092 10085 10079 10075 10071 10067
10336 10329 10322 10315 10307 10301 10294 10287 10280 10273 10266 10259 10252 10245 10238 10230 10222 10213 10205 10197 10189 10179 10170 10161 10154 10146 10139 10132 10124 10116 10110 10105 10100 10094 10089 10085 10079 10073 10068 10064 10059 10055